This is the latest recevied weather packets stored in our database for station/object K2RMB. If no packets are shown the sender has not sent any weather packets the latest 10 day(s).
| Time | Temp. | Humidity | Pressure | Rain* | Wind** | Luminosity | Snow |
|---|---|---|---|---|---|---|---|
| 1777095518 | 3.33° C | 59% | 1016.1 hPa | 0 mm | - | 0 W/m² | - |
| 1777095213 | 3.33° C | 59% | 1016.4 hPa | 0 mm | - | 0 W/m² | - |
| 1777094908 | 2.78° C | 61% | 1016.1 hPa | 0 mm | - | 0 W/m² | - |
| 1777094604 | 3.33° C | 59% | 1016.1 hPa | 0 mm | - | 0 W/m² | - |
| 1777094303 | 3.33° C | 60% | 1016.1 hPa | 0 mm | - | 0 W/m² | - |
| 1777093999 | 3.33° C | 62% | 1016.1 hPa | 0 mm | - | 0 W/m² | - |
| 1777093694 | 3.89° C | 57% | 1016.4 hPa | 0 mm | - | 0 W/m² | - |
| 1777093392 | 3.89° C | 56% | 1016.4 hPa | 0 mm | - | 0 W/m² | - |
| 1777093086 | 3.89° C | 57% | 1016.1 hPa | 0 mm | - | 0 W/m² | - |
| 1777092781 | 3.89° C | 59% | 1016.1 hPa | 0 mm | - | 0 W/m² | - |
| 1777092476 | 4.44° C | 59% | 1016.1 hPa | 0 mm | - | 0 W/m² | - |
| 1777092172 | 4.44° C | 56% | 1016.4 hPa | 0 mm | - | 0 W/m² | - |
| 1777091869 | 4.44° C | 53% | 1016.1 hPa | 0 mm | - | 0 W/m² | - |
| 1777091564 | 4.44° C | 55% | 1016.1 hPa | 0 mm | - | 0 W/m² | - |
| 1777091259 | 5° C | 54% | 1016.4 hPa | 0 mm | - | 0 W/m² | - |
| 1777090955 | 5° C | 53% | 1016.1 hPa | 0 mm | - | 0 W/m² | - |
| 1777090652 | 5° C | 55% | 1016.1 hPa | 0 mm | - | 0 W/m² | - |
| 1777090348 | 5° C | 54% | 1016.1 hPa | 0 mm | - | 0 W/m² | - |
| 1777090045 | 5° C | 56% | 1016.4 hPa | 0 mm | - | 0 W/m² | - |
| 1777089740 | 5.56° C | 52% | 1016.1 hPa | 0 mm | - | 0 W/m² | - |
| 1777089436 | 5.56° C | 50% | 1016.1 hPa | 0 mm | - | 0 W/m² | - |
| 1777089131 | 5° C | 51% | 1015.6 hPa | 0 mm | - | 0 W/m² | - |
| 1777088830 | 5.56° C | 57% | 1015.6 hPa | 0 mm | - | 0 W/m² | - |
| 1777088527 | 6.11° C | 49% | 1015.6 hPa | 0 mm | - | 0 W/m² | - |
| 1777088226 | 5° C | 51% | 1015.6 hPa | 0 mm | - | 0 W/m² | - |
* Rain latest hour (hover to see other rain measurements)
** Current wind speed in m/s (hover to see current wind gust speed)